Temp
60 60 60 60 60 60 60 60 60 60 60 60 60 60 61 60 60 67 65 73 73 69 69 77 78 79 82 80 83 84 71 70 75 74 78 85 81 88 90 88 89 94 92 92 91
59 59 59 59 59 59 59 59 59 59 60 60 60 60 60 60 63 65 75 70 68 66 70 74 73 77 76 77 78 74 70 74 83 84 80 84 83 84 83 84 86 89 93 90 90
59 59 59 59 59 59 59 59 59 59 59 59 59 60 59 62 62 73 68 70 66 68 76 78 80 77 74 78 76 74 71 80 80 82 84 82 82 86 82 81 87 86 92 90 88
58 59 59 59 58 58 58 58 59 59 59 59 59 59 59 64 57 74 67 66 66 73 74 73 74 71 71 70 77 69 77 79 82 81 79 79 84 82 82 85 89 89 92 91 88
58 58 58 58 58 58 58 58 58 58 58 58 58 58 59 56 60 78 69 69 74 73 70 71 71 72 69 75 75 71 76 76 80 80 80 82 79 80 82 86 89 89 89 90 90
57 57 57 57 57 57 57 57 57 57 57 58 58 58 52 43 74 77 76 75 73 73 71 74 73 77 74 74 72 75 73 76 77 78 79 76 77 78 81 86 85 87 87 91 91
57 57 57 57 57 57 57 56 56 56 57 58 59 57 48 52 73 76 74 72 75 74 70 75 79 74 73 69 76 73 67 72 75 76 75 78 70 73 82 84 82 84 87 89 93
57 56 56 56 56 56 57 57 56 57 58 59 59 56 43 66 70 68 71 71 73 74 75 78 77 74 72 76 69 67 68 64 73 74 76 73 66 79 83 81 80 83 86 88 91
57 56 56 56 56 57 56 56 56 59 59 61 58 52 50 69 61 68 70 65 68 70 69 70 71 67 69 64 62 64 59 61 68 74 74 71 68 80 83 82 80 83 85 87 90
56 56 55 55 56 56 55 55 60 59 63 66 61 46 57 57 66 67 71 68 63 64 61 61 63 59 63 60 54 59 59 66 64 70 73 70 71 77 81 81 80 82 85 87 89
56 56 55 55 56 55 57 69 63 61 62 53 56 54 58 66 70 66 67 62 59 58 51 56 53 52 59 62 65 68 65 62 66 73 69 70 71 77 80 80 80 82 84 84 87
55 55 55 55 55 55 61 59 56 56 41 57 61 60 63 63 52 60 65 55 50 47 55 49 48 61 65 65 63 65 63 61 67 71 70 69 69 75 79 80 81 82 84 85 87
55 55 55 55 55 59 62 58 65 59 38 51 59 57 59 59 52 54 62 58 54 50 51 51 55 61 62 61 59 60 61 61 63 66 70 69 66 69 76 80 81 84 87 87 88
54 55 55 54 56 64 63 65 63 57 34 51 56 59 58 59 48 63 59 58 55 52 54 55 63 59 57 57 61 54 66 65 63 60 56 68 57 66 73 74 77 81 84 86 87
54 55 54 53 61 61 63 66 61 47 32 56 56 69 63 54 55 54 54 46 50 53 52 52 56 56 54 57 62 58 66 64 64 61 62 61 60 68 72 70 74 79 83 86 86
54 54 54 62 65 67 67 64 57 36 32 49 57 53 54 58 57 51 48 51 49 47 56 57 65 60 61 63 64 66 62 62 64 62 49 59 60 65 67 71 75 80 80 80 82
54 53 56 64 59 69 65 57 37 35 52 40 43 49 50 50 53 51 47 42 35 32 40 52 56 63 63 55 61 59 54 46 44 47 49 64 59 67 69 72 78 75 74 74 78
53 52 59 65 70 66 62 50 34 45 42 47 45 45 43 52 52 51 46 39 41 43 41 43 41 56 61 56 53 55 57 52 41 45 52 64 54 64 68 67 70 70 66 68 75
52 67 67 69 68 65 57 41 35 39 41 36 37 45 48 49 47 47 42 39 40 42 42 40 47 61 62 62 61 55 52 68 58 60 56 57 60 63 64 57 59 60 59 57 60
59 61 66 70 66 63 52 34 39 43 40 38 32 40 37 43 42 43 45 47 38 47 50 48 38 58 60 65 62 59 66 53 59 46 45 52 55 59 60 52 54 53 54 57 60
60 58 65 69 66 60 37 38 44 52 46 36 35 34 40 35 37 39 44 43 42 45 46 45 46 50 57 51 54 57 56 59 62 59 50 46 55 69 65 56 53 53 56 61 63
58 56 66 68 54 50 41 40 45 49 52 44 39 36 35 35 36 41 38 37 45 46 37 47 45 44 50 62 65 64 58 60 52 50 58 56 50 68 64 56 53 53 57 61 63
53 56 67 65 38 37 43 44 48 46 46 41 37 37 38 35 33 43 43 44 46 44 43 44 42 39 36 45 61 56 59 63 62 61 53 52 46 54 53 50 52 53 55 58 60
54 49 58 60 51 39 37 43 41 50 46 45 40 40 37 36 39 38 40 43 47 45 49 46 49 45 38 47 53 50 58 63 61 54 56 59 47 47 47 47 50 52 55 57 59
54 47 44 41 44 42 46 43 39 36 44 46 39 39 36 33 36 38 40 41 46 48 46 45 45 42 46 55 56 55 57 60 58 60 56 56 52 47 47 48 51 54 56 58 61
43 42 46 38 44 45 44 41 37 38 39 38 35 38 38 35 37 34 38 39 38 44 41 50 45 47 47 55 55 54 58 59 61 60 60 61 49 52 52 53 52 54 59 60 62
50 48 42 43 48 43 43 39 39 41 43 46 43 38 37 40 42 43 45 43 42 41 38 44 48 42 37 47 46 43 55 58 60 62 63 56 48 52 47 50 52 55 59 60 60
MSLP
1020.88 1020.47 1020.09 1019.71 1019.33 1018.98 1018.63 1018.26 1017.95 1017.62 1017.23 1016.95 1016.54 1016.21 1015.80 1015.25 1014.56 1013.42 1011.36 1009.66 1009.75 1010.36 1010.82 1009.85 1009.43 1009.04 1008.62 1007.69 1007.23 1006.68 1004.74 1002.04 1001.07 1001.39 1001.37 1001.95 1002.54 1002.52 1002.68 1002.39 1002.56 1002.17 1002.35 1003.11 1004.32
1020.82 1020.43 1020.04 1019.63 1019.21 1018.79 1018.39 1018.02 1017.63 1017.26 1016.98 1016.66 1016.31 1016.09 1015.64 1015.16 1013.83 1011.01 1008.33 1008.89 1009.62 1010.14 1009.91 1008.82 1008.24 1008.09 1007.34 1006.68 1006.60 1005.73 1003.61 1001.56 1001.34 1001.31 1001.93 1001.95 1002.41 1002.28 1002.62 1002.34 1002.20 1002.46 1002.93 1004.01 1004.49
1020.72 1020.23 1019.85 1019.48 1019.10 1018.68 1018.25 1017.81 1017.38 1016.93 1016.62 1016.22 1015.92 1015.63 1015.35 1014.85 1012.26 1007.19 1007.58 1008.02 1009.48 1009.83 1008.86 1008.27 1007.40 1007.28 1006.18 1005.75 1005.27 1004.65 1002.30 1001.83 1001.81 1002.48 1002.56 1002.22 1002.15 1002.41 1002.36 1001.78 1001.94 1002.31 1002.34 1003.55 1004.34
1020.64 1020.16 1019.74 1019.28 1018.74 1018.26 1017.81 1017.31 1016.86 1016.45 1016.17 1015.79 1015.54 1015.45 1015.26 1014.14 1010.24 1007.54 1008.57 1008.97 1009.24 1009.06 1008.53 1007.84 1007.00 1006.19 1005.08 1004.37 1004.36 1003.72 1002.77 1002.58 1002.18 1002.89 1002.99 1002.39 1002.28 1002.12 1002.46 1002.08 1002.15 1002.84 1002.85 1003.27 1003.92
1020.60 1020.10 1019.66 1019.17 1018.64 1018.06 1017.41 1016.77 1016.32 1016.04 1015.61 1015.15 1015.13 1015.20 1014.78 1012.72 1009.09 1007.98 1008.65 1008.92 1008.56 1008.39 1007.64 1006.78 1005.89 1005.22 1004.02 1003.54 1003.73 1003.34 1002.64 1003.14 1002.92 1002.82 1002.90 1002.76 1002.49 1002.28 1002.18 1002.70 1002.99 1003.17 1003.18 1003.19 1003.34
1020.52 1019.80 1019.28 1018.87 1018.22 1017.68 1017.10 1016.32 1015.50 1015.12 1014.83 1014.34 1014.34 1014.46 1014.22 1011.18 1008.38 1008.11 1008.03 1007.98 1008.04 1007.61 1007.03 1006.27 1005.35 1004.86 1003.86 1003.33 1003.08 1002.92 1003.52 1002.86 1002.97 1002.80 1002.80 1002.81 1002.62 1002.69 1002.44 1002.85 1002.96 1002.87 1002.80 1002.54 1002.70
1020.31 1019.62 1019.01 1018.36 1017.79 1017.08 1016.40 1015.54 1014.71 1014.13 1013.35 1013.16 1013.43 1013.43 1012.17 1008.78 1008.12 1007.67 1007.84 1007.58 1007.16 1006.86 1006.29 1005.90 1005.06 1004.69 1004.18 1003.62 1003.34 1003.22 1003.28 1002.86 1002.34 1002.52 1002.50 1002.95 1002.32 1001.46 1002.26 1002.60 1002.41 1002.26 1002.12 1002.10 1001.87
1020.00 1019.47 1018.88 1018.06 1017.28 1016.50 1015.55 1014.47 1013.56 1012.94 1012.37 1012.08 1012.18 1012.48 1010.21 1008.91 1008.45 1007.75 1007.91 1007.05 1007.22 1006.59 1005.82 1005.72 1005.60 1004.82 1003.89 1003.30 1003.31 1002.90 1002.74 1001.24 1001.24 1001.90 1002.16 1002.79 1000.20 1000.33 1001.29 1001.75 1001.60 1001.63 1001.61 1001.52 1001.31
1019.87 1019.11 1018.35 1017.54 1016.58 1015.73 1014.83 1013.60 1012.28 1011.91 1011.70 1011.08 1011.17 1011.37 1008.32 1006.72 1007.29 1006.81 1006.74 1006.06 1006.98 1006.95 1007.18 1006.79 1005.84 1004.69 1004.42 1003.20 1002.53 1001.60 1000.02 1000.36 1000.20 1001.32 1001.43 1001.74 1000.16 999.85 1000.26 1000.48 1000.67 1000.84 1001.01 1000.86 1000.93
1019.48 1018.68 1017.92 1017.02 1016.10 1015.13 1014.04 1012.55 1010.82 1011.23 1010.72 1010.17 1010.44 1010.95 1007.68 1006.03 1005.48 1005.83 1005.40 1005.68 1006.03 1006.37 1006.93 1006.54 1005.30 1003.92 1002.97 1001.92 998.02 998.78 999.74 998.99 999.54 1000.52 1000.75 1000.54 999.68 999.44 999.45 999.79 1000.05 1000.06 1000.24 1000.23 1000.35
1018.88 1018.10 1017.24 1016.28 1015.57 1014.67 1013.42 1010.35 1009.77 1009.36 1009.42 1009.76 1008.39 1007.92 1006.86 1005.94 1005.36 1005.24 1004.99 1005.59 1006.17 1005.81 1004.86 1005.28 1004.42 1001.02 999.86 1000.25 1000.11 998.70 998.77 999.18 999.62 999.61 1000.20 999.43 999.43 998.73 999.26 999.61 999.38 999.44 999.57 1000.00 1000.24
1018.51 1017.59 1016.66 1015.81 1014.79 1014.21 1013.29 1011.75 1012.25 1012.66 1009.91 1008.21 1006.84 1006.36 1005.69 1005.84 1005.40 1005.36 1005.72 1005.41 1005.66 1004.56 1004.50 1004.52 1001.48 1000.34 1000.74 1000.43 1000.12 999.22 998.60 998.99 999.44 999.72 999.85 999.20 998.87 998.91 998.88 998.86 999.06 998.90 998.99 999.41 999.83
1018.24 1017.38 1016.39 1015.36 1014.30 1013.51 1012.68 1012.54 1012.75 1012.96 1011.85 1007.33 1005.91 1005.49 1004.89 1005.15 1004.63 1004.20 1004.81 1004.64 1004.24 1003.52 1002.87 1001.48 1000.51 1001.30 1000.30 999.95 999.74 999.42 998.77 998.77 998.66 999.66 999.86 998.84 998.78 998.50 998.41 998.60 998.84 998.74 998.64 998.98 999.21
1017.95 1016.96 1016.01 1015.09 1013.68 1012.35 1011.56 1012.48 1012.78 1013.11 1011.57 1005.90 1004.32 1003.96 1004.58 1004.40 1003.94 1003.55 1004.71 1004.74 1004.06 1002.55 1001.88 1000.89 1000.11 999.32 999.83 999.09 999.26 998.83 999.31 998.97 999.08 999.31 998.40 998.81 997.06 997.45 997.46 997.86 998.31 998.36 998.56 998.85 999.24
1017.54 1016.48 1015.64 1015.04 1013.34 1012.00 1012.18 1012.19 1012.68 1013.27 1009.28 1004.69 1003.54 1003.38 1003.28 1003.20 1003.18 1002.96 1004.66 1004.84 1003.36 1002.28 1001.70 999.54 999.32 998.97 998.97 998.43 999.05 998.76 999.44 999.56 999.20 998.90 998.11 998.56 997.42 995.39 996.85 996.98 997.61 998.12 998.47 998.84 999.56
1017.14 1016.08 1015.21 1013.24 1012.84 1011.87 1011.86 1012.14 1012.53 1011.60 1006.96 1004.68 1003.57 1003.14 1001.98 1001.59 1001.02 1003.08 1003.91 1004.66 1004.42 1003.30 1001.13 999.68 998.96 998.44 997.99 998.71 998.73 999.47 999.40 1000.02 999.49 998.86 998.50 997.37 996.96 995.25 996.21 996.50 997.40 998.26 999.34 1000.15 1000.49
1016.55 1015.28 1014.72 1013.64 1012.47 1011.89 1011.89 1011.26 1010.94 1009.01 1007.11 1006.44 1004.94 1003.87 1002.70 1001.13 1000.51 1001.74 1002.51 1003.18 1003.60 1002.85 1000.93 999.86 998.29 998.00 998.06 998.20 998.61 998.68 998.55 998.70 998.55 998.01 995.94 996.69 997.23 995.34 996.78 997.77 997.74 999.50 1001.07 1001.63 1001.61
1015.77 1014.84 1013.79 1012.99 1012.11 1011.80 1010.96 1009.92 1009.51 1008.79 1008.30 1007.49 1006.25 1004.58 1002.68 1001.14 1000.79 1000.89 1001.32 1001.84 1002.33 1001.96 1000.67 999.08 998.39 997.08 997.38 997.77 997.51 997.51 996.42 994.38 993.94 994.42 994.90 995.58 996.25 996.43 998.84 1000.48 1001.00 1002.04 1003.24 1003.38 1002.77
1015.14 1013.36 1012.27 1011.91 1011.92 1011.64 1010.00 1009.39 1010.43 1010.38 1010.15 1009.02 1006.85 1004.21 1002.51 1001.92 1001.89 1001.24 1001.47 1001.66 1001.82 1001.80 1000.04 998.79 997.17 997.21 996.95 997.23 997.03 996.70 995.91 994.15 993.91 994.44 994.42 996.01 997.32 999.07 1000.25 1002.36 1003.31 1004.00 1004.53 1005.08 1005.43
1014.87 1013.39 1012.05 1011.79 1011.67 1010.72 1009.77 1010.83 1010.75 1010.94 1010.76 1009.79 1008.31 1006.40 1004.79 1003.36 1002.56 1002.08 1000.98 1001.34 1002.03 1001.55 1000.60 999.10 998.02 996.48 996.75 996.42 996.77 996.10 995.50 994.41 993.35 992.76 993.29 995.59 996.59 997.12 1000.27 1002.91 1004.23 1005.15 1005.76 1006.12 1006.30
1014.36 1012.54 1012.37 1011.87 1011.37 1010.00 1010.98 1011.49 1010.87 1010.33 1010.47 1010.22 1009.02 1007.84 1006.54 1005.52 1004.21 1002.84 1001.51 1001.93 1002.16 1001.44 1001.26 1000.52 998.53 996.54 996.54 996.06 995.63 995.44 994.78 994.78 993.43 992.78 993.20 994.83 996.48 997.40 1000.03 1003.20 1004.69 1005.96 1006.40 1006.48 1006.59
1014.67 1012.24 1013.06 1011.78 1010.59 1012.11 1012.16 1012.42 1011.48 1010.25 1009.63 1009.62 1009.45 1008.78 1007.76 1006.58 1005.02 1003.39 1002.87 1002.92 1002.20 1001.52 1001.27 999.94 998.71 996.58 995.74 995.86 995.68 994.86 994.68 994.09 993.46 993.41 993.58 994.88 998.22 999.66 1001.76 1004.28 1005.67 1006.58 1006.90 1007.22 1007.60
1015.37 1013.98 1013.14 1012.20 1012.66 1013.19 1013.05 1012.00 1011.32 1010.40 1009.95 1009.62 1009.61 1009.18 1008.45 1007.19 1006.01 1003.72 1003.20 1002.86 1002.42 1001.44 1000.56 1000.24 998.75 997.28 997.57 997.35 995.53 994.90 994.84 994.22 993.69 993.81 994.00 995.23 999.90 1002.55 1004.11 1005.65 1006.84 1007.14 1007.75 1008.22 1008.57
1015.92 1013.83 1013.04 1012.74 1013.82 1014.26 1013.36 1012.05 1011.32 1010.72 1010.12 1010.21 1009.71 1009.00 1008.39 1007.13 1006.09 1004.55 1003.67 1002.69 1002.08 1001.33 1000.12 1000.13 997.67 996.75 995.57 993.68 994.32 994.54 994.24 994.02 993.98 993.79 994.39 995.37 1000.38 1003.36 1005.19 1006.41 1007.50 1008.10 1008.48 1008.85 1009.22
1017.40 1016.84 1017.25 1015.11 1014.49 1014.25 1013.48 1012.64 1011.82 1011.22 1010.81 1010.04 1009.52 1009.03 1008.38 1006.97 1005.74 1004.70 1004.08 1002.80 1001.60 1000.93 1000.21 999.18 997.34 997.47 996.14 995.00 995.30 995.05 993.98 994.08 994.18 993.90 994.30 996.98 999.95 1003.24 1005.36 1006.73 1007.66 1008.24 1008.82 1009.09 1009.56
1018.99 1018.64 1017.65 1016.70 1015.42 1014.22 1013.47 1013.04 1012.62 1011.70 1011.41 1010.02 1009.80 1008.67 1007.84 1006.92 1006.07 1004.92 1004.30 1003.41 1002.27 1000.98 1000.30 998.82 997.54 997.22 996.15 995.86 995.28 994.94 995.16 995.00 994.89 995.26 995.60 997.04 1001.24 1004.14 1006.11 1007.42 1008.26 1008.87 1009.09 1009.39 1010.07
1019.92 1019.58 1018.94 1016.87 1014.96 1014.40 1013.68 1013.75 1012.90 1012.32 1011.03 1010.02 1009.12 1007.98 1006.72 1006.09 1005.35 1004.25 1003.54 1003.00 1002.53 1001.64 1000.76 999.08 997.43 997.30 997.20 997.28 997.20 996.29 995.28 995.35 995.93 995.91 996.12 998.00 1002.04 1004.58 1006.90 1007.98 1008.60 1009.13 1009.65 1010.30 1011.22
Wind_Speed
18 18 17 18 17 18 18 17 18 17 17 17 16 16 17 17 18 20 24 15 9 20 13 8 12 15 21 16 13 16 12 18 23 19 15 7 13 10 5 11 10 10 5 10 4
18 18 18 18 18 18 18 18 18 18 18 17 17 16 17 18 21 27 22 11 16 1 16 19 17 18 18 21 13 17 17 23 16 13 13 11 12 10 8 12 13 12 8 4 9
18 18 18 19 20 20 19 19 19 19 18 17 16 15 15 18 20 8 8 12 15 17 16 16 17 20 21 19 20 17 24 18 11 12 15 15 12 8 10 14 12 13 12 6 5
20 20 20 20 20 21 21 21 21 20 20 20 17 15 14 12 9 5 10 12 11 16 14 18 17 25 22 22 24 17 24 20 15 14 17 16 13 15 13 13 2 7 8 6 9
21 22 22 22 22 23 23 24 23 23 22 20 18 15 13 13 17 6 11 7 6 14 18 20 23 23 23 20 19 27 17 14 18 15 15 13 14 16 13 10 8 8 11 13 10
22 24 24 25 24 24 24 25 26 25 24 24 20 14 12 26 14 13 16 16 13 15 16 19 16 23 14 22 21 11 23 18 16 20 17 17 15 16 13 10 17 17 16 17 15
21 22 24 24 25 24 24 24 27 27 29 26 22 14 19 27 16 10 12 13 15 20 19 19 18 19 14 12 19 18 13 19 22 17 13 16 22 26 18 15 15 15 14 16 16
21 22 25 25 26 27 27 27 28 28 27 22 16 13 17 14 28 31 27 21 10 6 17 19 18 18 20 10 6 22 20 20 20 23 21 12 17 21 23 21 21 20 16 16 17
23 23 25 26 27 26 27 29 31 18 14 8 5 8 14 9 19 19 23 28 27 19 8 7 16 21 20 19 16 18 19 25 18 18 15 24 15 19 15 20 22 19 17 17 16
24 24 24 26 27 26 26 28 21 14 10 5 1 6 10 15 1 7 4 17 16 19 22 17 12 16 20 21 29 24 23 18 24 20 21 21 20 7 11 19 17 16 16 16 15
27 26 25 24 27 25 19 15 10 4 14 15 20 25 26 27 31 20 4 13 13 14 26 20 20 28 32 29 24 18 21 24 14 15 24 25 21 17 12 12 16 18 15 12 14
28 28 27 26 26 24 12 9 9 9 15 19 18 14 16 15 15 19 8 12 13 16 22 15 31 31 27 25 25 25 15 18 14 12 19 20 21 21 19 16 13 14 15 14 15
27 28 27 27 25 11 9 9 8 5 6 14 5 6 2 5 5 8 18 19 16 19 25 23 19 28 25 26 25 26 19 16 19 15 16 12 18 20 18 18 17 16 15 14 14
28 28 27 25 14 8 6 11 5 5 5 3 4 5 6 8 4 10 4 20 24 24 22 26 20 16 30 29 26 26 22 13 17 19 13 17 10 22 19 18 18 18 15 14 14
29 30 27 19 11 8 12 9 6 2 7 12 3 6 11 15 17 12 11 3 26 26 17 22 23 24 25 27 26 21 21 15 14 14 7 16 10 16 21 20 19 19 19 14 9
30 32 26 3 6 8 10 8 2 6 5 15 11 24 22 21 8 13 7 14 3 23 27 24 16 17 20 25 26 21 25 19 14 11 11 15 17 17 15 20 19 20 10 8 8
32 29 16 7 10 14 8 4 7 6 20 11 24 25 20 13 10 10 8 9 6 8 21 24 26 18 17 22 21 27 26 16 14 12 14 21 14 5 12 2 16 13 12 8 7
33 27 2 4 13 9 7 6 6 15 16 20 19 26 7 13 10 7 8 5 10 12 12 21 24 25 19 21 19 32 31 19 32 21 17 18 11 13 14 7 7 11 9 9 7
30 3 5 11 10 5 8 4 7 11 14 13 20 14 13 16 13 8 6 4 3 14 9 18 18 23 18 18 24 32 28 23 17 17 16 11 7 8 16 12 12 13 13 13 12
10 5 8 17 6 7 4 4 7 6 13 8 6 8 19 17 14 14 7 4 1 14 6 5 11 28 21 24 25 23 28 21 12 23 18 15 17 11 17 15 14 14 14 15 16
5 5 10 17 6 5 5 7 13 21 16 5 7 7 12 9 12 8 5 3 2 5 5 10 11 19 25 15 26 20 21 18 13 11 11 12 13 9 20 18 18 16 17 18 20
6 4 10 14 6 5 8 14 14 18 21 6 6 5 5 11 7 8 7 4 12 9 9 6 5 20 29 17 25 22 29 23 14 14 10 10 9 5 20 16 17 18 18 20 20
9 3 4 9 7 10 11 10 13 20 18 7 5 3 4 6 6 12 9 9 13 6 5 4 6 19 6 7 21 25 25 21 14 10 9 13 10 10 16 18 17 20 19 19 20
7 6 4 4 3 13 15 11 16 18 14 11 12 9 12 9 5 7 16 5 18 8 9 4 10 14 10 16 22 28 30 23 14 13 16 11 19 17 17 19 19 19 20 20 19
6 6 4 9 9 14 15 12 20 15 7 10 4 13 19 7 8 6 10 13 11 9 7 4 10 6 10 18 24 28 28 26 16 12 15 21 23 21 20 20 20 20 21 21 20
5 6 4 8 13 15 11 12 17 23 12 9 7 20 19 7 8 16 15 6 5 10 8 8 7 10 10 16 22 26 25 22 16 1 7 25 22 19 19 21 20 19 21 21 20
3 4 4 10 10 10 9 18 22 20 10 17 22 19 13 12 18 22 18 12 10 6 7 7 7 9 7 22 13 12 23 22 11 3 17 23 18 25 21 20 18 19 18 19 18
Wind_Direction
355 352 350 346 341 336 332 327 325 322 320 317 317 316 315 309 295 269 260 247 193 234 257 241 195 194 207 210 214 230 232 234 234 219 240 213 222 204 236 242 209 194 285 25 128
353 350 347 342 337 333 329 326 323 319 317 316 315 316 311 309 293 274 252 210 211 201 194 199 197 189 195 207 201 209 226 235 241 224 233 203 227 178 207 210 216 221 172 124 144
347 343 340 337 333 329 326 321 317 315 312 309 307 306 305 304 295 259 24 201 210 210 222 218 217 199 208 207 199 216 238 231 240 222 237 243 219 210 230 237 202 215 204 161 172
342 339 337 333 328 324 320 315 311 308 306 303 299 299 300 286 275 67 107 152 178 199 207 203 209 203 218 207 210 243 223 248 229 223 238 239 242 235 222 234 247 219 262 244 199
341 337 335 332 328 324 320 314 309 305 300 293 291 292 280 239 242 154 146 158 218 199 203 196 204 201 214 213 221 220 242 226 235 235 229 241 234 238 217 223 243 243 249 234 233
340 335 333 331 327 323 317 311 307 301 295 287 282 263 241 250 276 272 256 257 246 212 213 211 212 211 229 238 222 211 231 234 233 232 231 236 227 233 233 251 249 249 242 240 224
335 331 328 325 322 318 312 306 298 298 293 284 275 253 234 237 266 265 239 245 241 229 220 215 220 206 218 244 233 253 243 229 229 219 225 235 245 239 240 236 235 216 220 235 233
333 329 327 327 324 320 314 307 301 298 296 297 276 250 254 258 247 257 261 257 244 233 233 226 227 237 235 228 225 215 223 232 212 219 220 207 249 214 217 221 222 232 240 233 233
335 330 329 328 323 321 315 310 303 303 297 272 199 199 259 209 235 256 249 236 229 232 227 245 226 218 216 221 219 198 217 220 213 200 202 211 238 234 196 215 224 223 225 228 222
335 332 330 325 325 323 319 300 283 278 234 168 100 209 235 261 3 269 259 223 218 221 220 224 212 199 216 202 213 205 215 221 214 176 217 202 233 160 218 201 212 209 213 218 219
334 334 330 328 325 325 317 312 343 278 323 289 278 274 280 286 301 293 113 174 200 204 198 201 211 210 204 210 226 215 209 225 204 182 212 217 217 214 170 190 217 222 217 217 217
333 334 332 328 324 323 285 358 1 322 303 296 261 262 271 262 271 265 250 188 204 197 197 170 221 217 217 209 217 231 229 209 185 179 208 207 217 231 226 223 216 215 204 200 202
331 329 329 324 320 286 328 356 339 339 281 294 273 262 333 207 237 272 230 227 212 220 193 203 224 230 222 218 209 219 221 200 202 189 217 191 217 228 229 228 221 217 210 190 190
329 328 331 329 284 351 346 347 334 21 289 259 195 200 195 279 247 214 167 249 237 237 207 226 221 209 212 215 202 206 204 192 202 182 195 205 212 204 216 204 212 210 203 197 194
330 330 329 323 308 316 347 333 357 133 297 10 36 103 287 275 269 202 148 286 223 218 236 216 217 216 204 212 197 215 186 197 174 200 183 188 246 181 204 204 201 203 199 188 175
331 328 330 226 249 322 328 315 174 226 329 334 326 329 315 321 329 109 146 182 282 247 222 231 205 221 213 203 204 202 182 198 197 205 212 204 222 166 190 207 196 192 166 165 176
329 322 316 316 330 325 321 227 271 342 338 346 322 332 317 301 326 191 215 195 172 162 212 215 228 203 207 187 193 207 163 175 187 192 219 198 197 357 123 191 168 160 158 150 163
326 314 164 276 319 321 278 247 302 356 343 323 322 310 292 348 334 315 288 260 183 209 193 200 204 213 185 200 182 198 182 182 179 190 180 182 206 155 103 94 112 92 113 117 108
316 320 297 356 344 303 282 347 341 341 331 312 312 313 344 360 336 307 259 289 236 207 177 202 210 189 194 187 185 187 201 201 192 189 160 165 127 123 121 121 131 126 110 105 111
322 305 15 343 343 278 350 338 330 329 310 284 296 329 322 343 330 329 300 78 274 210 275 204 203 185 178 190 191 196 198 207 227 177 170 174 177 150 159 145 134 122 118 119 113
292 277 20 340 268 334 29 334 315 327 348 294 287 292 311 326 310 296 312 14 139 261 165 266 192 176 191 193 190 196 196 207 220 190 177 163 168 121 149 148 138 129 125 120 110
312 311 14 328 28 21 355 322 292 327 341 315 287 265 285 315 284 295 336 354 293 271 158 233 183 172 192 173 199 207 201 204 207 184 203 160 102 287 111 133 129 125 119 111 108
329 319 16 341 32 356 331 309 338 334 338 328 289 255 291 292 301 312 336 306 323 306 162 205 208 156 176 219 203 182 206 192 201 199 187 170 127 100 112 116 123 121 117 114 113
322 335 359 328 108 350 331 337 339 343 323 322 290 285 327 302 249 295 328 311 316 273 250 235 192 159 209 186 176 188 190 193 184 193 179 182 134 137 129 129 128 124 122 120 117
7 22 22 323 333 335 330 327 338 347 316 322 277 323 327 294 301 333 321 320 312 357 349 254 165 102 290 148 167 189 189 189 191 207 188 137 147 145 142 139 136 130 128 125 118
1 344 327 284 293 331 343 344 329 330 319 311 289 314 312 293 290 309 313 312 306 329 335 314 140 138 154 138 178 173 178 191 193 170 162 143 128 131 129 128 132 136 136 126 120
8 280 287 291 318 333 348 328 326 324 304 316 319 313 306 307 306 294 288 274 266 302 329 315 149 171 130 136 147 181 176 181 147 259 150 148 128 129 131 132 135 135 125 124 119